Scappoose, OR

12:48 PM PST on February 25, 2018 (GMT -0800)
Scappoose Industrial

Weather History for KSPB - March, 2014

Change the Weather History Date:

Monday, March 10, 2014

  Actual Average Record
Temperature  
Mean Temperature 45 °F -  
Max Temperature 56 °F - 75 °F (2005)
Min Temperature 34 °F - 28 °F (2006)
Degree Days  
Heating Degree Days 20    
Month to date heating degree days 163  
Since 1 July heating degree days 3794  
Cooling Degree Days 0    
Month to date cooling degree days 0  
Year to date cooling degree days 0  
Moisture  
Dew Point 42 °F    
Average Humidity 80    
Maximum Humidity 100    
Minimum Humidity 59    
Precipitation  
Precipitation 0.11 in - 0.64 in (2011)
Month to date precipitation 4.61  
Year to date precipitation 13.71  
Sea Level Pressure  
Sea Level Pressure 30.17 in    
Wind  
Wind Speed 5 mph (WNW)    
Max Wind Speed 16 mph    
Max Gust Speed 22 mph    
Visibility 8 miles    
Events Rain    
T = Trace of Precipitation, MM = Missing Value Source: NWS Daily Summary

Daily Weather History Graph

Daily Weather History Graph

Search for Another Location

Airport or City:

Trip Planner

Search our weather history database for the weather conditions in past years. The results will help you decide how hot, cold, wet, or windy it might be!

Date:

Astronomy

Mar. 10, 2014 Rise Set
Actual Time 7:33 AM PDT 7:10 PM PDT
Civil Twilight 7:03 AM PDT 7:40 PM PDT
Nautical Twilight 6:29 AM PDT 8:14 PM PDT
Astronomical Twilight 5:54 AM PDT 8:49 PM PDT
Moon 1:47 PM PDT (3/10) 4:01 AM PDT (3/10)
Length of Visible Light 12h 36m
Length of Day
11h 37m
Waxing Gibbous, 71% of the Moon is Illuminated
Mar 10
Waxing Gibbous
Mar 16
Full
Mar 23
Last Quarter
Mar 30
New
Apr 7
First Quarter

Hourly Weather History & Observations

Time (PDT) Temp. Windchill Dew Point Humidity Pressure Visibility Wind Dir Wind Speed Gust Speed Precip Events Conditions
12:53 AM 48.9 °F - 48.0 °F 97% 29.99 in 10.0 mi Calm Calm - 0.00 in   Mostly Cloudy
1:53 AM 48.0 °F - 46.0 °F 93% 29.99 in 10.0 mi NNW 3.5 mph - N/A   Mostly Cloudy
2:53 AM 46.9 °F - 46.0 °F 97% 30.00 in 10.0 mi Calm Calm - N/A   Mostly Cloudy
3:53 AM 46.0 °F 44.8 °F 45.0 °F 96% 30.00 in 10.0 mi SW 3.5 mph - N/A   Overcast
4:21 AM 45.0 °F - 44.1 °F 97% 30.00 in 1.8 mi Calm Calm - N/A   Mostly Cloudy
4:30 AM 45.0 °F - 44.1 °F 97% 30.00 in 3.0 mi Calm Calm - N/A   Scattered Clouds
4:34 AM 44.1 °F - 44.1 °F 100% 30.00 in 2.5 mi Calm Calm - N/A   Scattered Clouds
4:53 AM 42.1 °F - 42.1 °F 100% 30.00 in 3.0 mi Calm Calm - N/A   Partly Cloudy
5:53 AM 44.1 °F - 42.1 °F 93% 30.02 in 8.0 mi Calm Calm - N/A   Scattered Clouds
6:04 AM 43.0 °F - 42.1 °F 97% 30.02 in 1.8 mi Calm Calm - N/A   Partly Cloudy
6:11 AM 42.1 °F - 42.1 °F 100% 30.03 in 2.0 mi Calm Calm - N/A   Partly Cloudy
6:33 AM 41.0 °F 39.0 °F 39.9 °F 96% 30.04 in 4.0 mi Variable 3.5 mph - N/A   Partly Cloudy
6:53 AM 42.1 °F - 42.1 °F 100% 30.05 in 9.0 mi Calm Calm - 0.01 in Rain Light Rain
7:53 AM 45.0 °F 41.2 °F 42.1 °F 90% 30.08 in 5.0 mi WNW 6.9 mph - 0.06 in Rain Rain
8:53 AM 46.9 °F - 42.1 °F 83% 30.11 in 10.0 mi Variable 4.6 mph - 0.03 in   Overcast
9:53 AM 50.0 °F - 43.0 °F 77% 30.14 in 10.0 mi WNW 8.1 mph - N/A   Overcast
10:53 AM 52.0 °F - 44.1 °F 74% 30.18 in 10.0 mi WNW 8.1 mph 16.1 mph N/A   Scattered Clouds
11:53 AM 53.1 °F - 43.0 °F 69% 30.20 in 10.0 mi WNW 4.6 mph - N/A   Mostly Cloudy
12:53 PM 53.1 °F - 42.1 °F 66% 30.23 in 10.0 mi WNW 10.4 mph 19.6 mph N/A   Overcast
1:53 PM 52.0 °F - 44.1 °F 74% 30.24 in 10.0 mi NNW 8.1 mph - 0.01 in   Mostly Cloudy
2:00 PM 52.0 °F - 43.0 °F 71% 30.23 in 10.0 mi WNW 6.9 mph - N/A   Mostly Cloudy
2:53 PM 53.1 °F - 42.1 °F 66% 30.24 in 10.0 mi West 8.1 mph - 0.00 in   Mostly Cloudy
3:53 PM 53.1 °F - 41.0 °F 64% 30.26 in 10.0 mi WNW 10.4 mph 19.6 mph N/A   Overcast
4:53 PM 53.1 °F - 39.9 °F 61% 30.30 in 10.0 mi WNW 11.5 mph 17.3 mph N/A   Mostly Cloudy
5:53 PM 51.1 °F - 39.9 °F 66% 30.32 in 10.0 mi West 6.9 mph - N/A   Mostly Cloudy
6:53 PM 48.9 °F - 39.0 °F 69% 30.35 in 10.0 mi Variable 3.5 mph - N/A   Partly Cloudy
7:53 PM 46.0 °F - 37.9 °F 73% 30.37 in 10.0 mi Calm Calm - N/A   Clear
8:53 PM 45.0 °F 42.6 °F 37.9 °F 76% 30.40 in 10.0 mi Variable 4.6 mph - N/A   Clear
9:53 PM 41.0 °F - 37.0 °F 86% 30.43 in 10.0 mi Calm Calm - N/A   Clear
10:53 PM 37.9 °F - 36.0 °F 93% 30.47 in 10.0 mi Calm Calm - N/A   Clear
11:53 PM 35.1 °F 30.1 °F 34.0 °F 96% 30.50 in 10.0 mi West 5.8 mph - N/A   Clear